{"data":{"norad_id":59526,"intl_designator":"2024-073R","name":"STARLINK-31564","alt_names":[],"object_type":"PAYLOAD","status":"ACTIVE","operator":null,"country":"US","launch_date":"2024-04-17","launch_site_code":"AFETR","launch_vehicle":null,"mission":null,"orbit_class":"UNKNOWN","rcs_meters":null,"size_class":null,"mass_kg":null,"dimensions":null,"purposes":["comms"],"wikipedia_slug":null,"has_3d_model":false,"image_url":null,"decayed_at":null,"tle_current":{"epoch":"2026-09-21T03:50:22.768800Z","epoch_age_seconds":111235,"freshness":"FRESH","line1":"1 59526U 24073R   26264.15998575  .00000651  00000+0  33176-4 0  9997","line2":"2 59526  43.0028 293.8184 0001550 273.4542  86.6132 15.27579854136075","mean_motion":15.27579854,"eccentricity":0.000155,"inclination_deg":43.0028,"raan_deg":293.8184,"arg_perigee_deg":273.4542,"mean_anomaly_deg":86.6132,"bstar":3.3176e-5,"rev_number":13607,"period_min":94.266757723292,"perigee_km":481.98604930356,"apogee_km":484.11301712886,"semimajor_km":6861.1865332162,"source":"CELESTRAK","updated_at":"2026-09-22T09:00:48.965769Z"}}}